Вернуться в каталог

COSMOS 1275 DEB

АктивенPO
NORAD 12694·DEBRIS·🇷🇺 Russia

Запущен Jun 4, 1981 с Plesetsk Cosmodrome

Loading…

Ближайшие Пролёты (ближайшие 24 часа)

TLE

СвежийSource: Space-Track

Эпоха: Sep 14, 2026, 08:14 UTC

1 12694U 81053AN  26257.34347044  .00000274  00000-0  32033-3 0  9997
2 12694  83.0820  36.4233 0113624   0.6911  25.6550 13.62461647235115

Отслеживайте COSMOS 1275 DEB в реальном времени с AllMySat

Download on the App Store